Kolkata, India

3:10 PM IST on March 24, 2017 (GMT +0530)
Netaji Subhash Chandra Bose International

Weather History for VECC - March, 2013

Change the Weather History Date:

Monday, March 25, 2013

  Actual Average Record
Temperature  
Mean Temperature 88 °F -  
Max Temperature 99 °F 90 °F 100 °F (2006)
Min Temperature 77 °F 72 °F 66 °F (1998)
Cooling Degree Days 23    
Growing Degree Days 38 (Base 50)    
Moisture  
Dew Point 70 °F    
Average Humidity 54    
Maximum Humidity 84    
Minimum Humidity 26    
Precipitation  
Precipitation 0.00 in - - ()
Sea Level Pressure  
Sea Level Pressure 29.69 in    
Wind  
Wind Speed 6 mph ()    
Max Wind Speed 12 mph    
Max Gust Speed -    
Visibility 1.9 miles    
Events      
Averages and records for this station are not official NWS values.
T = Trace of Precipitation, MM = Missing Value Source: Averaged Metar Reports

Daily Weather History Graph

Daily Weather History Graph

Search for Another Location

Airport or City:

Trip Planner

Search our weather history database for the weather conditions in past years. The results will help you decide how hot, cold, wet, or windy it might be!

Date:

Astronomy

Mar. 25, 2013 Rise Set
Actual Time 5:35 AM IST 5:49 PM IST
Civil Twilight 5:13 AM IST 6:11 PM IST
Nautical Twilight 4:47 AM IST 6:37 PM IST
Astronomical Twilight 4:20 AM IST 7:03 PM IST
Moon 3:58 PM IST (3/25) 3:49 AM IST (3/25)
Length of Visible Light 12h 58m
Length of Day
12h 13m
Waxing Gibbous, 95% of the Moon is Illuminated
Mar 25
Waxing Gibbous
Mar 27
Full
Apr 3
Last Quarter
Apr 10
New
Apr 18
First Quarter

Hourly Weather History & Observations

Time (IST) Temp. Heat Index Dew Point Humidity Pressure Visibility Wind Dir Wind Speed Gust Speed Precip Events Conditions
12:20 AM 82.4 °F 89.5 °F 75.2 °F 79% 29.74 in 1.9 mi WSW 10.4 mph - N/A   Haze
12:50 AM 82.4 °F 88.2 °F 73.4 °F 74% 29.74 in 1.9 mi West 9.2 mph - N/A   Haze
1:20 AM 82.4 °F 88.2 °F 73.4 °F 74% 29.71 in 1.9 mi WSW 6.9 mph - N/A   Haze
1:50 AM 82.4 °F 88.2 °F 73.4 °F 74% 29.71 in 1.9 mi SW 8.1 mph - N/A   Haze
2:20 AM 82.4 °F 88.2 °F 73.4 °F 74% 29.71 in 1.9 mi WSW 11.5 mph - N/A   Haze
2:50 AM 82.4 °F 89.5 °F 75.2 °F 79% 29.71 in 1.9 mi WSW 9.2 mph - N/A   Haze
3:20 AM 82.4 °F 89.5 °F 75.2 °F 79% 29.71 in 1.6 mi West 3.5 mph - N/A   Haze
3:50 AM 82.4 °F 89.5 °F 75.2 °F 79% 29.71 in 1.6 mi West 3.5 mph - N/A   Haze
4:20 AM 80.6 °F 86.2 °F 75.2 °F 84% 29.71 in 1.6 mi West 3.5 mph - N/A   Haze
4:50 AM 80.6 °F 86.2 °F 75.2 °F 84% 29.71 in 1.6 mi West 3.5 mph - N/A   Haze
5:20 AM 80.6 °F 86.2 °F 75.2 °F 84% 29.74 in 1.4 mi NW 3.5 mph - N/A   Haze
5:30 AM 80 °F - 69 °F 60% 29.74 in 1 mi Calm Calm - -   Haze
5:50 AM 78.8 °F - 69.8 °F 74% 29.74 in 1.2 mi NW 3.5 mph - N/A   Haze
6:20 AM 80.6 °F 83.9 °F 69.8 °F 70% 29.74 in 1.2 mi WSW 3.5 mph - N/A   Haze
7:20 AM 82.4 °F 86.3 °F 69.8 °F 66% 29.74 in 1.6 mi West 5.8 mph - N/A   Haze
7:50 AM 84.2 °F 89.6 °F 71.6 °F 66% 29.77 in 1.7 mi West 6.9 mph - N/A   Haze
8:20 AM 86.0 °F 91.8 °F 71.6 °F 62% 29.80 in 1.9 mi West 6.9 mph - N/A   Haze
8:30 AM 88 °F - 74 °F 54% 29.78 in 1 mi WSW 2.3 mph - -   Haze
8:50 AM 87.8 °F 95.6 °F 73.4 °F 62% 29.80 in - West 6.9 mph - N/A   Haze
9:20 AM 89.6 °F 98.2 °F 73.4 °F 59% 29.80 in 2.2 mi WNW 8.1 mph - N/A   Haze
9:50 AM 91.4 °F 98.4 °F 71.6 °F 52% 29.77 in 2.2 mi West 9.2 mph - N/A   Haze
10:20 AM 93.2 °F 100.5 °F 71.6 °F 49% 29.77 in 2.2 mi NW 10.4 mph - N/A   Haze
10:50 AM 95.0 °F 103.2 °F 71.6 °F 47% 29.74 in 2.2 mi NW 6.9 mph - N/A   Haze
11:20 AM 96.8 °F 103.1 °F 69.8 °F 41% 29.74 in 2.2 mi NW 6.9 mph - N/A   Haze
11:30 AM 96 °F - 68 °F 31% 29.75 in 1 mi WSW 2.3 mph - -   Haze
11:50 AM 96.8 °F 101.8 °F 68.0 °F 39% 29.74 in 2.2 mi NNW 8.1 mph - N/A   Haze
12:20 PM 96.8 °F 101.8 °F 68.0 °F 39% 29.71 in 2.2 mi WNW 6.9 mph - N/A   Haze
12:50 PM 98.6 °F 104.1 °F 68.0 °F 37% 29.68 in 2.2 mi West 6.9 mph - N/A   Haze
1:20 PM 98.6 °F 104.1 °F 68.0 °F 37% 29.68 in 2.2 mi NW 6.9 mph - N/A   Haze
1:50 PM 98.6 °F 102.8 °F 66.2 °F 35% 29.65 in 2.2 mi NW 6.9 mph - N/A   Haze
2:20 PM 98.6 °F 102.8 °F 66.2 °F 35% 29.65 in 2.2 mi NNW 9.2 mph - N/A   Haze
2:30 PM 98 °F - 66 °F 26% 29.64 in 1 mi NW 3.5 mph - -   Haze
2:50 PM 98.6 °F 102.8 °F 66.2 °F 35% 29.62 in 2.2 mi NW 6.9 mph - N/A   Haze
3:20 PM 100.4 °F 104.9 °F 66.2 °F 33% 29.62 in 2.2 mi NNW 4.6 mph - N/A   Haze
3:50 PM 100.4 °F 104.9 °F 66.2 °F 33% 29.59 in 2.2 mi NW 4.6 mph - N/A   Haze
4:20 PM 100.4 °F 104.9 °F 66.2 °F 33% 29.59 in 2.2 mi NW 3.5 mph - N/A   Haze
4:50 PM 100.4 °F 104.9 °F 66.2 °F 33% 29.59 in 2.2 mi NW 4.6 mph - N/A   Haze
5:20 PM 98.6 °F 102.8 °F 66.2 °F 35% 29.56 in 2.2 mi West 3.5 mph - N/A   Haze
5:30 PM 95 °F - 65 °F 27% 29.60 in 1 mi Calm Calm - -   Haze
6:20 PM 95.0 °F 97.0 °F 64.4 °F 36% 29.59 in - WSW 4.6 mph - N/A   Haze
6:50 PM 93.2 °F 94.9 °F 64.4 °F 38% 29.59 in - South 5.8 mph - N/A   Haze
7:20 PM 91.4 °F 93.2 °F 64.4 °F 41% 29.59 in 2.2 mi SSW 5.8 mph - N/A   Haze
7:50 PM 89.6 °F 91.1 °F 64.4 °F 43% 29.62 in 2.2 mi SW 9.2 mph - N/A   Haze
8:20 PM 89.6 °F 91.1 °F 64.4 °F 43% 29.65 in 2.2 mi WSW 9.2 mph - N/A   Haze
8:30 PM 89 °F - 76 °F 57% 29.67 in 1 mi WSW 2.3 mph - -   Haze
8:50 PM 87.8 °F 90.4 °F 66.2 °F 49% 29.65 in 2.2 mi SW 6.9 mph - N/A   Haze
9:20 PM 87.8 °F 90.4 °F 66.2 °F 49% 29.65 in 2.2 mi WSW 6.9 mph - N/A   Haze
9:50 PM 86.0 °F 89.4 °F 68.0 °F 55% 29.65 in 2.2 mi WSW 6.9 mph - N/A   Haze
10:20 PM 86.0 °F 89.4 °F 68.0 °F 55% 29.65 in 2.2 mi SW 8.1 mph - N/A   Haze
10:50 PM 86.0 °F 89.4 °F 68.0 °F 55% 29.65 in 2.2 mi WSW 5.8 mph - N/A   Haze
11:20 PM 86.0 °F 91.8 °F 71.6 °F 62% 29.65 in - West 3.5 mph - N/A   Haze
11:30 PM 84 °F - 74 °F 64% 29.69 in 1 mi Calm Calm - -   Haze
11:50 PM 84.2 °F 90.9 °F 73.4 °F 70% 29.68 in 1.9 mi Calm Calm - N/A   Haze